#timestamp,LO_Frequency,Hit,StdDev 
1629295215.9,286046998.3,N
1629295235.7,286046998.5,N
1629295255.6,286046999.0,N
1629295275.4,286046996.9,N
1629295295.2,286047000.8,N
1629295315.1,286046998.4,N
1629295316.0,286046998.4,N
1629295335.8,286047000.4,N
1629295355.7,286047001.8,N
1629295375.5,286047000.2,N
1629295395.3,286046995.4,N
1629295415.2,286046991.7,Y
1629295435.0,286046996.6,P
1629295435.9,286046996.6,P
1629295455.8,286047000.2,N
1629295475.6,286046996.1,N
1629295495.4,286047002.6,N
1629295515.3,286046999.2,N
1629295535.1,286047006.2,N
1629295555.8,286046999.8,N
1629295575.7,286047001.4,N
1629295595.5,286046999.1,N
1629295615.4,286046998.2,N
1629295635.2,286046996.8,N
1629295655.0,286046997.0,N
1629295655.9,286046997.0,N
1629295675.8,286047000.2,N
1629295695.6,286047002.7,N
1629295715.4,286047002.4,N
1629295735.3,286047002.0,N
1629295755.1,286047002.7,N
1629295775.9,286046996.9,N
1629295795.7,286046998.8,N
1629295815.5,286047001.2,N
1629295835.4,286047001.2,N
1629295855.2,286046998.4,N
1629295875.0,286046996.5,N
1629295875.9,286046996.5,N
1629295895.8,286047000.6,N
1629295915.6,286046998.4,N
1629295935.5,286046996.1,N
1629295955.3,286046996.0,N
1629295975.1,286046995.7,N
1629295995.9,286046996.6,N
1629296015.7,286046998.4,N
1629296035.5,286046998.5,N
1629296055.4,286046998.3,N
1629296075.2,286046998.8,N
1629296095.1,286046997.3,N
1629296096.0,286046997.3,N
1629296115.8,286046999.1,N
1629296135.6,286046997.6,N
1629296155.5,286046995.1,N
1629296175.3,286046995.8,N
1629296195.1,286046995.8,N
1629296215.9,286046992.1,Y
1629296235.7,286046993.5,P
1629296255.6,286046991.7,P
1629296275.4,286046994.6,N
1629296295.2,286046999.3,N
1629296315.1,286046997.8,N
1629296316.0,286046997.8,N
1629296335.8,286046995.3,N
1629296355.6,286046995.5,N
1629296375.5,286046996.1,N
1629296395.3,286046994.0,N
1629296415.2,286046994.4,N
1629296435.9,286046992.0,Y
1629296455.7,286046998.3,P
1629296475.6,286046998.7,N
1629296495.4,286046999.5,N
1629296515.2,286046998.5,N
1629296535.1,286047004.0,Y
1629296536.0,286047004.0,P
1629296555.8,286047007.0,N
1629296575.7,286047006.4,N
1629296595.5,286047001.6,N
1629296615.3,286047001.5,N
1629296635.2,286047001.8,N
1629296655.0,286047003.3,N
1629296655.9,286047003.3,N
1629296675.8,286047003.0,N
1629296695.6,286047002.9,N
1629296715.4,286047003.6,N
1629296735.3,286047004.0,N
1629296755.1,286047003.8,N
1629296775.8,286047003.3,N
1629296795.7,286046999.8,N
1629296815.5,286047000.3,N
1629296835.3,286047002.7,N
1629296855.2,286047001.8,N
1629296875.0,286046999.9,N
1629296875.9,286046999.9,N
1629296895.8,286047003.3,N
1629296915.6,286047002.1,N
1629296935.4,286047002.3,N
1629296955.3,286047002.2,N
1629296975.1,286047002.0,N
1629296995.9,286047004.3,N
1629297015.7,286047002.0,N
1629297035.5,286047000.0,N
1629297055.4,286046996.7,N
1629297075.2,286047000.1,N
1629297095.0,286047002.6,N
1629297095.9,286047002.6,N
1629297115.8,286047002.8,N
1629297135.6,286047002.7,N
1629297155.5,286047000.5,N
1629297175.3,286047000.3,N
1629297195.1,286047001.0,N
1629297215.9,286046998.2,N
1629297235.7,286046998.5,N
1629297255.5,286047001.1,N
1629297275.4,286046998.7,N
1629297295.2,286046998.6,N
1629297315.1,286046999.4,N
1629297316.0,286046999.4,N
1629297335.8,286046998.8,N
1629297355.6,286047000.8,N
1629297375.5,286046998.2,N
1629297395.3,286047000.9,N
1629297415.1,286046999.6,N
1629297435.9,286046999.3,N
1629297455.7,286046998.3,N
1629297475.6,286046995.5,N
1629297495.4,286046999.4,N
1629297515.2,286046998.9,N
1629297535.1,286046998.3,N
1629297536.0,286046998.3,N
1629297555.8,286047001.2,N
1629297575.6,286046999.2,N
1629297595.5,286046997.0,N
1629297615.3,286046997.8,N
1629297635.2,286046995.7,N
1629297655.9,286046991.7,Y
1629297675.7,286046991.9,P
1629297695.6,286046995.2,N
1629297715.4,286046997.9,N
1629297735.2,286046993.9,N
1629297755.1,286046996.4,N
1629297756.0,286046996.4,N
1629297775.8,286046993.9,N
1629297795.7,286046993.4,N
1629297815.5,286046995.9,N
1629297835.3,286046994.9,N
1629297855.2,286046995.8,N
1629297875.0,286046994.4,N
1629297875.9,286046994.4,N
1629297895.7,286046995.2,N
1629297915.6,286046995.3,N
1629297935.4,286046996.5,N
1629297955.3,286046996.8,N
1629297975.1,286046997.2,N
1629297976.0,286046997.2,N
1629297995.8,286046995.3,N
1629298015.7,286046997.9,N
1629298035.5,286046997.8,N
1629298055.3,286046997.8,N
1629298075.2,286046997.8,N
1629298095.0,286046993.6,Y
1629298095.9,286046993.6,P
1629298115.8,286046999.9,N
1629298135.6,286047001.0,N
1629298155.4,286047000.5,N
1629298175.3,286046998.2,N
1629298195.1,286047000.0,N
1629298215.8,286047002.1,N
1629298235.7,286047004.0,N
1629298255.5,286047006.0,N
1629298275.4,286047002.0,N
1629298295.2,286046999.7,N
1629298315.0,286047000.4,N
1629298315.9,286047000.4,N
1629298335.8,286047002.5,N
1629298355.6,286047000.2,N
1629298375.4,286047000.9,N
1629298395.3,286046998.2,N
1629298415.1,286047000.9,N
1629298435.9,286046998.5,N
1629298455.7,286047005.2,N
1629298475.5,286046995.8,N
1629298495.4,286047006.1,N
1629298515.2,286046997.4,N
1629298535.0,286046998.4,N
1629298536.0,286046998.4,N
1629298555.8,286047011.2,Y
1629298575.6,286047012.2,P
1629298595.5,286047009.4,N
1629298615.3,286047010.3,N
1629298635.1,286047009.8,N
1629298655.9,286047006.7,N
1629298675.7,286046995.5,N
1629298695.6,286046995.2,N
1629298715.4,286046993.9,N
1629298735.2,286046994.1,N
1629298755.1,286046994.0,N
1629298756.0,286046994.0,N
1629298775.8,286046994.6,N
1629298795.6,286046993.6,N
